STARLINK-1176, 45090

Orbit data source: Space-Track

STARLINK-1176, 45090 is a payload satellite owned by SpaceX/Seattle (US) in LEO that was launched on Wed, 29 Jan 2020 UTC via an FALCON 9 launch vehicle from the Air Force Eastern Test Range (AFETR). Payload-class satellites include a variety of spacecraft equipped with specific instruments for various scientific and technological missions. These include communications satellites like Starlink; space stations such as the ISS; scientific satellites like the Hubble; Earth observation satellites from companies like Planet Labs, Umbra, and HawkEye 360; GPS; miniature CubeSats for education and research; and military/defense satellites.

Loading next visibility...
Identifier
45090, 2020-006AY
Orbit
LEO
Country
Flag of USUS
Related business
Manufacturer
SpaceX/Seattle
Mission
Partially operational Commercial Communications
Bus & Motor
STARLINK, Unknown motor
Mass
260 kg wet, ~248 kg dry
Launch date (UTC)
2020-01-29 (6 years ago)
Launch vehicle
FALCON 9
Launch site
Air Force Eastern Test Range (AFETR)
Object type
Payload
Rocket body
Debris
Shape & HBR
Box + 1 Pan, 10.1 m
Radar Cross Section
13.562 m², Large (>1 m²)

Expand to show TLE details & history
Last TLE update: 9 hours ago

TLE from 9 hours ago
0 STARLINK-1176
1 45090U 20006AY  25286.66667824  .00410952  77817-4  10771-2 0  9997
2 45090  53.0439 127.5498 0002132 308.8982  41.3997 15.94352164  6016
Epoch: 2025-10-13T16:00Z
TLE epoch observation values (Epoch: 2025-10-13T16:00:00.999Z)
Latitude
-7.85585°
Longitude
-140.8451°
Altitude
291.317 km
Speed
7.734 km/s
True Right ascension
08h 06m 30s
True Declination
-7° 48' 22"
Sunlit
Object was in daylight at epoch
Visualization orbit readout
Latitude
Unknown
Longitude
Unknown
Altitude
Unknown
Speed
Unknown
Apparent Right ascension
Unknown
Apparent Declination
Unknown
Sunlit
N/A
Visualization observer readout
Local Sidereal Time
19:54:34
Azimuth
Unknown
Elevation
Unknown
Doppler factor
Unknown
Orbital elements
Apogee altitude
291.824 km
Perigee altitude
288.981 km
Semi-major axis
6,668.54 km
Eccentricity
0.00021
Inclination
53.0439°
RAAN
127.5498°
Arg. of periapsis
308.8982°
True anomaly
41.41586°
Mean anomaly
41.3997°
Eccentric anomaly
41.40778°
Mean motion
3.98563 °/min
Orbital period
90.32 mins
BSTAR
0.0010771
Loading maneuver chart data...
Computing Atmospheric mass density...
Loading historical data...
Loading historical data...
Loading historical data...
Loading historical data...
Loading historical data...
Loading historical data...
Loading historical data...

Documentation

Showing up to 5 results
|